Location: Blythe
(33.2930°N, 82.2020°W)
Time: 12:08:59
(UTC-04:00)

Hubble Space Telescope - Visible Passes

Search period start: 01 September 2015 00:00
Search period end: 11 September 2015 00:00
Orbit: 541 x 545 km, 28.5° (Epoch: 30 August)

Date Brightness Start Highest point End Pass type
(mag) Time Alt. Az. Time Alt. Az. Time Alt. Az.
01 Sep 3.1 06:19:57 10° SSW 06:22:16 15° SSE 06:24:39 10° ESE visible
02 Sep 2.8 06:10:23 10° SSW 06:13:14 18° SSE 06:16:08 10° ESE visible
03 Sep 2.5 06:01:37 13° SSW 06:04:13 22° SSE 06:07:27 10° ESE visible
04 Sep 2.3 05:53:15 18° SSW 05:55:12 26° SSE 05:58:41 10° ESE visible
05 Sep 2.0 05:44:51 24° SSW 05:46:11 30° SSE 05:49:51 10° ESE visible
06 Sep 1.7 05:36:26 31° SSW 05:37:11 34° S 05:40:58 10° ESE visible
07 Sep 1.5 05:28:01 37° S 05:28:12 37° S 05:32:03 10° ESE visible
08 Sep 1.6 05:19:37 39° SSE 05:19:37 39° SSE 05:23:07 10° ESE visible
09 Sep 1.9 05:11:13 35° SE 05:11:13 35° SE 05:14:10 10° ESE visible
10 Sep 2.3 05:02:52 28° SE 05:02:52 28° SE 05:05:11 10° ESE visible
10 Sep 1.9 06:38:34 10° WSW 06:42:14 30° SSW 06:45:54 10° SE visible
